Probability
0 0 0 3 0 0 0 0 0 0 0 0 0 0 0 0 3 3 3 3 3 6 6 10 3 10 10 10 16 13 13 13 13 16 13 10 10 13 16 23 23 23 16
0 0 0 0 3 3 0 0 0 0 0 0 0 0 0 0 0 0 3 3 3 6 6 6 6 6 10 6 13 10 10 16 13 13 16 13 13 13 13 19 23 19 19
0 0 0 0 0 0 0 0 0 0 0 0 0 0 0 0 0 0 0 0 3 3 3 6 6 3 3 3 3 10 13 13 13 13 13 13 13 13 13 13 16 19 16
0 0 0 0 0 0 0 0 0 0 0 0 0 0 0 0 0 0 0 0 0 0 3 6 6 6 3 3 3 3 13 13 13 13 13 16 10 16 13 13 13 13 13
0 0 0 0 0 0 0 0 0 0 0 0 0 0 0 0 0 0 0 0 0 0 0 0 0 6 6 6 6 6 3 6 10 10 13 13 13 16 10 13 13 13 13
0 0 0 0 0 0 0 0 0 0 0 0 0 0 0 0 0 0 0 0 0 0 0 0 0 0 6 6 6 6 3 6 6 3 6 6 6 6 6 10 3 10 10
0 0 0 0 0 0 0 0 0 0 0 0 0 0 0 0 0 0 0 0 0 0 0 0 0 0 0 3 6 3 3 6 3 3 3 6 6 6 6 6 6 6 3
0 0 0 0 0 0 0 0 0 0 0 0 0 0 0 0 0 0 0 0 0 0 0 0 0 0 0 0 0 3 3 3 3 3 3 3 3 3 6 6 3 0 0
0 0 0 0 0 0 0 0 0 0 0 0 0 0 0 0 0 0 0 0 0 0 0 0 0 0 0 0 0 0 3 3 3 6 3 3 6 3 0 0 0 0 0
0 0 0 0 0 0 0 0 0 0 0 0 0 0 0 0 0 0 0 0 0 0 0 0 0 0 0 0 0 0 3 3 3 3 3 3 3 0 0 0 0 0 0
0 0 0 0 0 0 0 0 0 0 0 0 0 0 0 0 0 0 0 0 0 0 0 0 0 0 0 0 0 0 0 0 3 3 6 6 3 0 0 0 0 0 0
0 0 0 0 0 0 0 0 0 0 0 0 0 0 0 0 0 0 0 0 0 0 0 0 0 0 0 0 0 0 0 0 0 0 0 0 0 0 0 0 0 0 0
0 0 0 0 0 0 0 0 0 0 0 0 0 0 0 0 0 0 0 0 0 0 0 0 0 0 0 0 0 0 0 0 0 0 0 0 0 0 0 0 0 0 0
0 0 0 0 0 0 0 0 0 0 0 0 0 0 0 0 0 0 0 0 0 0 0 0 0 0 0 0 0 0 0 0 0 0 0 0 0 0 0 0 0 0 0
0 0 0 0 0 0 0 0 0 0 0 0 0 0 0 0 0 0 0 0 0 0 0 0 0 0 0 0 0 0 0 0 0 0 0 0 0 0 0 0 0 0 0
0 0 0 0 0 0 0 0 0 0 0 0 0 0 0 0 0 0 0 0 0 0 0 0 0 0 0 0 0 0 0 0 0 0 0 0 0 0 0 0 0 0 0
0 0 0 0 0 0 0 0 0 0 0 0 0 0 0 0 0 0 0 0 0 0 0 0 0 0 0 0 0 0 0 0 0 0 0 0 0 0 0 0 0 0 0
0 0 0 0 0 0 0 0 0 0 0 0 0 0 0 0 0 0 0 0 0 0 0 0 0 0 0 0 0 0 0 0 0 0 0 0 0 0 0 0 0 0 0
0 0 0 0 0 0 0 0 0 0 0 0 0 0 0 0 0 0 0 0 0 0 0 0 0 0 0 0 0 0 0 0 0 0 0 0 0 0 0 0 0 0 0
0 0 0 0 0 0 0 0 0 0 0 0 0 0 0 0 0 0 0 0 0 0 0 0 0 0 0 0 0 0 0 0 0 0 0 0 0 0 0 0 0 0 0
0 0 0 0 0 0 0 0 0 0 0 0 0 0 0 0 0 0 0 0 0 0 0 0 0 0 0 0 0 0 0 0 0 0 0 0 0 0 0 0 0 0 0
0 0 0 0 0 0 0 0 0 0 0 0 0 0 0 0 0 0 0 0 0 0 0 0 0 0 0 0 0 0 0 0 0 0 0 0 0 0 0 0 0 0 0
0 0 0 0 0 0 0 0 0 0 0 0 0 0 0 0 0 0 0 0 0 0 0 0 0 0 0 0 0 0 0 0 0 0 0 0 0 0 0 0 0 0 0
0 0 0 0 0 0 0 0 0 0 0 0 0 0 0 0 0 0 0 0 0 0 0 0 0 0 0 0 0 0 0 0 0 0 0 0 0 0 0 0 0 0 0
0 0 0 0 0 0 0 0 0 0 0 0 0 0 0 0 0 0 0 0 0 0 0 0 0 0 0 0 0 0 0 0 0 0 0 0 0 0 0 0 0 0 0
0 0 0 0 0 0 0 0 0 0 0 0 0 0 0 0 0 0 0 0 0 0 0 0 0 0 0 0 0 0 0 0 0 0 0 0 0 0 0 0 0 0 0
Height
5847 5846 5846 5845 5844 5843 5842 5841 5840 5838 5837 5836 5835 5835 5834 5834 5834 5834 5834 5834 5833 5833 5833 5833 5832 5832 5832 5832 5832 5832 5831 5831 5831 5831 5831 5832 5832 5833 5833 5833 5834 5834 5834
5844 5843 5842 5841 5841 5840 5839 5838 5837 5835 5834 5833 5832 5831 5831 5830 5830 5830 5830 5830 5829 5829 5829 5828 5828 5828 5827 5827 5827 5827 5827 5827 5827 5827 5828 5828 5828 5829 5829 5830 5830 5830 5831
5840 5839 5839 5838 5837 5836 5835 5834 5833 5832 5831 5830 5829 5828 5827 5827 5827 5826 5826 5826 5825 5825 5825 5825 5824 5824 5823 5823 5823 5823 5823 5823 5823 5823 5823 5824 5824 5825 5825 5826 5826 5827 5827
5836 5836 5835 5835 5834 5833 5832 5831 5830 5829 5827 5826 5825 5824 5823 5823 5823 5822 5822 5822 5821 5821 5821 5821 5820 5820 5820 5819 5819 5819 5818 5818 5818 5818 5819 5819 5820 5821 5821 5822 5822 5822 5823
5833 5832 5831 5831 5830 5829 5828 5827 5826 5825 5824 5822 5821 5820 5819 5818 5818 5817 5818 5817 5817 5817 5816 5816 5816 5816 5816 5815 5815 5815 5814 5814 5814 5814 5814 5815 5815 5816 5817 5817 5818 5818 5818
5829 5828 5828 5827 5826 5825 5824 5823 5822 5821 5820 5818 5817 5816 5815 5814 5813 5813 5813 5813 5813 5813 5812 5812 5812 5812 5811 5811 5811 5811 5810 5810 5810 5810 5810 5810 5811 5811 5812 5813 5813 5814 5814
5825 5824 5823 5822 5822 5821 5820 5819 5818 5817 5816 5815 5814 5812 5811 5810 5809 5809 5809 5809 5808 5808 5808 5808 5808 5807 5807 5807 5807 5807 5806 5806 5806 5805 5805 5806 5806 5807 5807 5808 5809 5809 5809
5821 5820 5819 5818 5817 5817 5816 5815 5814 5813 5812 5811 5810 5809 5808 5807 5805 5805 5804 5804 5804 5804 5804 5804 5803 5803 5803 5803 5802 5802 5802 5801 5801 5801 5801 5801 5801 5802 5802 5803 5804 5804 5805
5816 5815 5815 5814 5813 5812 5811 5811 5810 5809 5808 5807 5806 5805 5804 5803 5802 5801 5800 5800 5800 5800 5800 5800 5799 5799 5799 5798 5798 5797 5797 5796 5796 5796 5796 5796 5796 5796 5797 5798 5798 5799 5800
5812 5811 5810 5809 5809 5808 5807 5806 5805 5805 5804 5803 5802 5801 5801 5799 5799 5798 5797 5796 5796 5796 5795 5795 5795 5795 5794 5793 5793 5792 5791 5791 5791 5791 5791 5791 5791 5791 5791 5792 5793 5794 5795
5807 5807 5806 5805 5804 5804 5803 5802 5801 5800 5799 5798 5798 5797 5796 5796 5795 5794 5793 5793 5792 5791 5791 5790 5790 5789 5789 5788 5788 5787 5786 5785 5785 5785 5785 5785 5785 5785 5786 5786 5787 5788 5789
5803 5802 5801 5800 5800 5799 5798 5797 5796 5795 5794 5794 5793 5792 5791 5791 5790 5789 5789 5788 5788 5787 5786 5785 5785 5784 5784 5783 5782 5781 5781 5780 5779 5779 5779 5779 5779 5779 5780 5781 5782 5783 5783
5798 5797 5796 5796 5795 5794 5793 5792 5792 5791 5790 5789 5788 5787 5787 5786 5785 5784 5784 5783 5783 5782 5781 5780 5779 5779 5778 5777 5776 5776 5775 5774 5773 5773 5773 5773 5773 5773 5774 5774 5776 5776 5777
5793 5792 5791 5791 5790 5789 5788 5788 5787 5786 5785 5784 5783 5783 5782 5780 5780 5779 5778 5778 5777 5777 5776 5775 5773 5772 5771 5771 5770 5769 5768 5768 5767 5766 5766 5766 5766 5766 5767 5768 5769 5769 5770
5787 5786 5786 5785 5784 5784 5783 5782 5781 5781 5780 5779 5778 5777 5776 5775 5774 5773 5772 5771 5771 5770 5770 5768 5767 5765 5764 5764 5763 5762 5761 5761 5760 5759 5759 5759 5759 5760 5760 5761 5762 5762 5763
5781 5780 5780 5779 5778 5778 5777 5776 5776 5775 5774 5773 5772 5771 5770 5769 5768 5767 5766 5765 5764 5763 5762 5761 5760 5758 5757 5756 5755 5754 5753 5753 5752 5752 5752 5751 5752 5752 5753 5753 5754 5755 5756
5775 5774 5774 5773 5772 5772 5771 5770 5770 5769 5768 5767 5766 5765 5764 5763 5762 5760 5759 5758 5757 5756 5755 5754 5752 5751 5750 5748 5747 5747 5746 5745 5745 5744 5744 5744 5744 5745 5745 5746 5747 5748 5749
5769 5769 5768 5767 5766 5765 5764 5764 5763 5762 5761 5760 5759 5758 5757 5756 5755 5753 5752 5751 5750 5748 5747 5746 5745 5743 5742 5741 5740 5739 5738 5737 5736 5736 5736 5736 5736 5737 5737 5738 5739 5740 5741
5762 5762 5761 5760 5759 5758 5757 5757 5756 5755 5754 5753 5752 5751 5750 5748 5747 5746 5745 5743 5742 5741 5739 5738 5737 5735 5734 5733 5732 5731 5730 5729 5728 5728 5728 5727 5728 5729 5729 5730 5731 5732 5733
5755 5754 5753 5752 5751 5750 5749 5749 5748 5747 5746 5745 5744 5743 5742 5741 5739 5738 5737 5735 5734 5733 5731 5730 5729 5728 5726 5725 5724 5723 5722 5721 5720 5720 5720 5720 5720 5720 5721 5722 5723 5724 5724
5747 5746 5745 5744 5743 5742 5742 5741 5740 5739 5738 5737 5736 5735 5734 5732 5731 5729 5728 5727 5725 5724 5723 5721 5720 5719 5718 5716 5716 5715 5714 5713 5713 5712 5712 5712 5712 5712 5713 5713 5714 5715 5716
5740 5739 5737 5737 5736 5735 5734 5733 5732 5731 5730 5729 5728 5727 5725 5724 5723 5721 5719 5718 5716 5715 5714 5712 5711 5710 5709 5708 5707 5706 5706 5705 5705 5705 5704 5704 5704 5704 5705 5705 5706 5706 5707
5731 5731 5730 5729 5728 5727 5726 5725 5724 5723 5722 5721 5720 5719 5717 5716 5714 5712 5711 5709 5707 5705 5704 5703 5702 5701 5700 5700 5699 5699 5698 5697 5697 5696 5696 5696 5696 5697 5697 5697 5697 5698 5698
5723 5722 5721 5720 5720 5719 5718 5717 5716 5715 5714 5713 5712 5711 5709 5708 5706 5704 5702 5700 5698 5697 5695 5694 5693 5693 5692 5691 5691 5691 5690 5690 5689 5688 5688 5689 5688 5689 5689 5689 5689 5690 5690
5715 5714 5713 5712 5711 5711 5710 5709 5708 5707 5706 5705 5704 5703 5701 5699 5698 5696 5694 5692 5690 5688 5687 5685 5684 5683 5683 5682 5682 5682 5681 5681 5681 5680 5680 5680 5680 5681 5681 5681 5681 5682 5682
5707 5706 5705 5704 5703 5702 5702 5701 5700 5699 5698 5697 5696 5695 5693 5691 5689 5687 5685 5683 5682 5680 5679 5677 5675 5674 5673 5673 5672 5672 5672 5672 5672 5672 5671 5672 5672 5672 5673 5673 5673 5674 5674
Wind_Speed
14 14 14 14 13 14 14 14 14 14 14 14 14 15 15 16 16 16 16 17 17 16 16 16 16 16 16 17 17 17 16 16 16 16 16 17 16 16 15 15 15 15 16
15 15 15 14 14 14 14 14 14 14 14 15 15 14 15 15 15 16 17 17 17 16 16 15 15 15 15 16 16 16 16 16 16 16 17 17 17 17 17 17 16 16 16
15 15 15 15 14 14 14 15 14 14 15 15 15 14 14 15 15 15 16 16 15 15 15 14 14 14 15 15 14 15 16 16 16 17 17 16 16 16 17 17 17 17 16
15 15 15 15 15 15 15 15 14 14 14 15 15 15 15 15 15 16 16 15 14 14 15 15 15 14 14 14 15 15 15 16 16 17 16 16 16 16 16 17 18 18 18
15 15 15 15 15 15 15 15 15 15 15 14 14 15 15 15 16 16 16 15 15 14 15 15 15 15 15 15 15 15 15 16 16 16 17 17 17 17 17 17 18 18 18
16 16 16 16 15 15 15 15 14 15 14 13 13 13 14 14 15 15 15 15 16 16 15 16 16 15 15 15 15 15 15 15 16 16 17 17 17 18 17 18 19 19 19
16 16 16 16 16 15 15 14 14 14 15 14 14 13 14 14 15 15 15 16 16 16 16 17 16 16 16 16 16 15 15 15 16 16 16 16 17 17 18 18 18 19 19
16 16 15 15 15 15 15 15 15 14 15 15 14 14 13 13 14 14 14 14 14 15 16 16 16 16 16 16 16 17 17 17 16 17 16 17 17 17 18 19 18 18 19
17 16 15 15 15 15 15 15 15 14 14 14 14 14 13 13 13 13 14 14 14 14 15 16 16 17 17 17 17 18 18 18 17 17 17 17 18 18 18 19 19 19 19
16 16 15 15 15 15 15 15 15 15 15 15 15 15 14 13 14 14 14 14 14 15 15 16 16 16 17 17 17 18 19 19 19 19 18 18 19 19 19 19 20 20 20
16 17 17 16 16 16 16 16 16 15 15 15 15 15 15 15 15 14 14 15 15 16 16 16 16 16 17 18 18 18 19 19 20 20 19 19 19 20 20 20 19 19 20
17 17 17 17 17 17 17 17 16 16 15 16 16 16 16 16 16 16 16 16 16 17 17 17 17 18 18 19 19 19 19 20 20 20 20 20 20 20 20 20 20 20 21
18 18 18 18 18 18 17 17 16 16 16 16 16 17 17 17 17 18 18 18 18 18 18 19 19 19 20 21 21 20 20 21 21 22 21 22 22 21 21 21 21 21 21
20 19 19 19 19 18 17 17 17 17 17 17 17 18 18 18 18 18 18 19 19 19 20 20 21 21 22 22 23 22 22 22 23 23 23 23 23 23 22 22 22 22 22
20 20 19 19 19 19 18 18 18 18 18 19 19 19 19 19 19 19 19 19 20 21 21 22 22 23 23 24 24 24 24 24 24 24 24 24 24 24 23 23 23 23 23
20 20 20 20 20 20 19 19 19 19 19 19 19 19 20 20 20 21 20 21 21 22 22 22 23 23 24 25 25 25 25 25 26 26 26 25 25 24 24 24 24 23 24
21 20 20 20 20 20 21 21 21 20 20 20 21 21 21 21 21 22 22 22 23 23 23 23 24 24 24 24 24 25 26 26 26 26 26 26 26 25 24 24 24 24 24
22 22 22 22 22 22 22 22 22 22 22 22 22 22 22 22 22 23 23 24 24 24 24 24 24 24 24 25 25 25 26 26 26 26 25 26 26 26 26 26 26 25 25
24 24 23 23 23 23 23 23 23 23 23 23 23 23 23 23 23 24 24 25 25 25 25 25 24 25 25 26 25 25 25 25 25 25 25 26 26 26 26 26 26 26 26
25 25 25 25 25 25 25 24 24 24 24 24 24 24 24 25 25 25 25 26 26 26 26 25 25 25 26 26 26 25 25 25 25 25 25 26 26 26 26 26 27 27 27
26 26 26 25 25 25 25 25 25 25 25 25 25 25 25 26 26 26 26 27 27 27 27 27 26 25 25 26 26 25 25 25 24 24 24 24 24 25 25 26 26 27 28
27 27 26 26 25 25 25 25 25 25 25 25 25 25 25 26 26 26 27 27 27 27 28 27 27 26 26 25 25 25 25 25 24 25 24 24 24 24 25 25 25 26 27
27 27 27 26 26 26 25 26 26 25 25 25 25 25 25 26 26 26 27 27 28 28 28 27 27 26 26 25 25 25 25 24 24 24 24 24 24 25 26 25 25 26 26
27 27 27 27 26 26 26 26 26 26 25 25 25 26 26 27 27 27 27 27 27 27 26 26 26 26 26 25 24 25 25 24 24 24 25 24 24 25 25 25 25 26 26
27 27 27 27 27 27 27 26 26 26 26 26 26 26 27 27 27 27 27 26 25 25 26 26 27 27 27 26 26 26 26 25 24 24 24 25 25 25 25 25 25 25 25
28 28 27 27 27 27 27 27 27 27 27 27 27 27 27 27 27 27 27 26 25 25 26 26 27 28 27 27 27 27 26 26 26 25 25 25 25 25 24 24 24 24 24
Wind_Direction
277 279 281 283 286 287 286 287 285 282 280 276 274 272 271 269 266 266 267 268 267 267 265 265 267 264 263 262 264 265 265 266 264 261 260 260 259 258 258 258 258 259 260
277 279 284 286 287 286 287 287 288 284 281 280 277 274 272 269 267 265 267 268 267 267 266 267 264 263 263 262 262 263 263 263 261 259 258 259 259 258 259 259 260 260 260
279 282 284 285 287 288 289 289 289 285 282 281 278 274 273 272 269 266 266 265 267 268 267 265 265 262 262 261 263 263 262 261 261 260 258 257 256 258 258 258 259 262 261
281 283 282 283 285 285 287 287 286 283 281 281 279 275 271 270 271 268 266 264 266 266 265 264 262 262 264 266 267 267 266 265 263 262 259 256 255 258 257 257 259 261 262
283 284 284 282 283 285 288 287 284 284 282 280 278 277 274 271 271 269 266 264 263 263 264 262 262 264 266 269 273 273 272 269 266 264 262 258 257 258 258 259 261 262 262
287 286 285 285 285 284 286 287 284 284 286 284 278 277 275 272 270 266 265 264 263 262 261 259 259 261 264 267 272 274 274 272 270 267 263 261 259 258 260 261 261 261 262
288 289 286 284 285 285 286 285 282 284 285 287 283 278 275 272 270 268 267 266 264 262 260 259 259 260 263 266 268 269 272 274 272 268 267 264 262 260 261 261 260 260 261
287 288 287 285 284 284 283 283 283 282 284 287 288 285 282 279 275 271 268 266 265 261 259 259 262 264 263 265 268 268 270 272 272 270 268 265 262 261 261 261 259 261 262
288 287 287 285 284 284 281 283 283 281 281 283 287 289 287 282 280 276 274 273 272 270 269 268 269 269 267 267 269 269 270 270 269 267 266 265 262 261 261 261 259 261 263
284 285 286 288 286 283 281 283 283 282 282 282 284 285 285 284 282 280 278 278 276 273 272 273 272 270 269 270 270 270 269 268 267 267 267 265 264 263 263 261 259 260 262
281 283 285 285 284 283 282 283 284 285 284 282 282 282 282 283 283 281 279 279 278 275 272 273 273 273 271 271 271 271 271 269 269 269 269 267 266 266 266 263 260 260 260
279 280 282 284 283 282 283 282 283 283 285 284 283 282 280 281 281 281 279 278 278 276 275 273 273 274 273 272 272 273 272 271 271 270 268 267 267 267 267 264 261 261 261
280 280 281 281 281 282 282 282 281 282 283 283 283 282 280 280 280 280 278 276 277 277 277 276 274 275 275 273 273 274 273 271 271 270 268 266 266 267 265 262 261 262 260
280 279 280 279 278 278 279 279 280 280 281 282 282 282 281 282 282 281 280 277 276 276 277 276 275 274 275 275 275 276 274 273 273 272 271 268 267 265 263 261 260 261 262
281 278 279 278 277 277 278 278 279 280 282 283 283 283 283 283 283 283 282 280 278 278 277 276 276 276 276 276 275 275 275 274 274 272 271 270 268 266 264 264 263 263 264
280 278 278 279 277 278 279 278 278 280 282 284 285 284 283 283 282 283 284 283 282 280 280 279 278 278 279 278 276 275 274 274 273 272 271 270 268 267 264 264 264 263 263
279 279 279 279 278 279 279 279 278 279 281 282 284 284 283 283 282 282 283 283 283 282 281 280 280 280 280 279 278 276 276 275 275 274 271 270 268 266 264 263 263 263 263
276 277 281 277 277 277 279 279 277 278 279 281 283 283 283 282 282 282 282 283 284 284 282 280 280 279 279 280 279 278 277 276 275 274 271 270 268 266 264 263 263 263 264
275 276 278 278 277 276 276 277 278 278 279 281 282 282 282 281 281 282 282 282 283 284 283 281 279 278 277 279 279 278 277 276 275 273 271 270 269 266 264 263 262 263 264
275 276 276 277 276 276 276 277 278 278 279 280 281 281 282 281 281 281 281 282 282 282 282 281 279 278 277 278 277 277 277 275 274 273 271 270 268 265 263 262 262 262 262
277 277 277 277 276 275 276 277 279 279 279 280 281 280 280 280 281 281 281 281 281 282 281 280 278 279 278 278 276 276 275 273 273 273 273 270 267 266 266 264 263 263 262
275 277 277 276 275 275 276 277 278 279 278 280 280 280 280 281 281 282 282 282 282 281 281 280 278 278 278 278 277 276 274 273 273 273 272 270 268 268 268 267 265 264 263
275 276 276 275 274 275 275 276 277 278 278 278 279 280 279 280 282 283 284 283 282 281 281 279 278 276 276 276 276 275 274 274 272 271 270 270 269 268 268 267 266 265 263
276 276 276 275 274 274 274 275 275 276 277 277 279 279 280 281 282 284 285 284 283 281 279 278 277 276 276 275 274 273 273 273 272 271 270 271 270 269 268 267 267 266 265
276 277 276 274 274 273 273 274 275 275 276 277 278 279 280 281 283 284 285 283 281 280 279 278 277 276 275 275 276 274 271 272 271 271 271 270 269 267 265 266 266 266 265
277 277 276 274 273 272 273 273 274 274 275 276 277 278 281 283 284 285 284 282 280 280 280 279 277 274 274 275 274 273 271 271 270 270 271 271 268 266 264 264 265 266 266